STARLINK-5271 (54194 NORAD) Tracking and Keplerian Element Data

This shows tracking and keplerian element data for the satellite.

Feedback or suggestion? Click here.




ElementValue
Catalog54194
NameSTARLINK-5271
Epoch Orbit407
Epoch Day325.25001157
Epoch Year2022
RAAN24.0859
Inclination53.2187
Eccentricity0.0003159
Argument of Perigee14.5015
Mean Anonmoly18.8709
Mean Motion15.73182032
Decay Rate0.00031216
L11 54194U 22141AP 22325.25001157 .00031216 00000+0 22615-3 0 9999
L22 54194 53.2187 24.0859 0003159 14.5015 18.8709 15.73182032 4079



Live tracking and technical data element details for STARLINK-5271 (NORAD 54194). STARLINK-5271 can be tracked NOW for your location showing map with azimuth and elevation plus other details from your city location.







IsCatalogInMostPopularTable: catalog: 54194, numindb: 7
Update: records affected: 1



GetName: 54194 STARLINK-5271

Hit Count: updated at: Sun, 04 Dec 2022 21:32:21 GMT